Regional Weather Roundup
Issued by NWS

Home | Current Version | Previous Version | Graphics & Text | Print | Product List | Glossary On
Versions: 1 2 3 4 5 6 7 8 9 10 11 12 13 14 15 16 17 18 19 20 21 22 23 24 25 26 27 28 29 30 31 32 33 34 35 36 37 38 39 40 41 42 43 44 45 46 47 48 49 50
000
ASUS45 KPSR 211810
RWRAZ

ARIZONA HOURLY REGIONAL WEATHER ROUNDUP
NATIONAL WEATHER SERVICE PHOENIX AZ
1100 AM MST MON AUG 21 2017

NOTE: FAIR INDICATES FEW OR NO CLOUDS BELOW 12,000 FEET WITH NO
SIGNIFICANT WEATHER AND/OR OBSTRUCTIONS TO VISIBILITY.

AZZ001>003-036-211900-
NORTHWEST ARIZONA

CITY           SKY/WX    TMP DP  RH WIND       PRES   REMARKS
BULLHEAD CITY  PTSUNNY   88  61  40 N14       29.95S
KINGMAN        LGT RAIN  69  64  84 NE9       30.16F
6HR MIN TEMP:  69; 6HR MAX TEMP:  76; 6HR PCP:  0.02;

$$

AZZ004>008-015-016-018-211900-
NORTH CENTRAL ARIZONA

CITY           SKY/WX    TMP DP  RH WIND       PRES   REMARKS
GRAND CANYON   PTSUNNY   68  53  58 CALM      30.33S
6HR MIN TEMP:  55; 6HR MAX TEMP:  69;

WILLIAMS       CLOUDY    68  52  56 NW6       30.34R
PRESCOTT       CLOUDY    73  54  51 NW5       30.23S
6HR MIN TEMP:  58; 6HR MAX TEMP:  74;

FLAGSTAFF      PTSUNNY   68  49  50 SE3       30.36R
6HR MIN TEMP:  54; 6HR MAX TEMP:  70; 6HR PCP: TRACE;

PAYSON           N/A     75  50  41 SW3       30.24S
PAGE           MOSUNNY   83  46  27 VRB5      30.13S
6HR MIN TEMP:  73; 6HR MAX TEMP:  84;

$$

AZZ009>014-017-211900-
NORTHEAST ARIZONA

CITY           SKY/WX    TMP DP  RH WIND       PRES   REMARKS
WINSLOW        SUNNY     77  52  41 VRB3      30.21S
6HR MIN TEMP:  63; 6HR MAX TEMP:  78;

SAINT JOHNS    CLOUDY    75  49  39 NW5       30.24F
6HR MIN TEMP:  55; 6HR MAX TEMP:  76;

WINDOW ROCK    CLOUDY    70  52  52 S5        30.30F
6HR MIN TEMP:  50; 6HR MAX TEMP:  71;

SHOW LOW       SUNNY     70  54  56 SW8       30.31S
$$

AZZ540-542>544-546-548-211900-
GREATER PHOENIX AREA

CITY           SKY/WX    TMP DP  RH WIND       PRES   REMARKS
PHOENIX        MOSUNNY   93  56  28 SE5       29.93S
6HR MIN TEMP:  85; 6HR MAX TEMP:  93;

BUCKEYE        MOSUNNY   91  46  21 S6        29.94S
GLENDALE       PTSUNNY   93  48  21 CALM      29.95S
LUKE AFB       MOSUNNY   92  54  27 SE5       29.93S
6HR MIN TEMP:  83; 6HR MAX TEMP:  92; 6HR PCP: TRACE;

DEER VALLEY    MOSUNNY   91  54  28 MISG      29.95F
6HR MIN TEMP:  81; 6HR MAX TEMP:  92;

SCOTTSDALE     MOSUNNY   92  54  27 SW5       29.97F
6HR MIN TEMP:  82; 6HR MAX TEMP:  93;

MESA-FALCON    MOSUNNY   91  57  31 SW5       29.96F
MESA-GATEWAY   MOSUNNY   91  57  31 S3        29.97S
CHANDLER       MOSUNNY   91  57  31 NE6       29.95S
$$

AZZ539-553-211900-
SOUTHWEST MARICOPA COUNTY AND PINAL COUNTY

CITY           SKY/WX    TMP DP  RH WIND       PRES   REMARKS
CASA GRANDE    SUNNY     91  58  32 CALM      29.97S
6HR MIN TEMP:  78; 6HR MAX TEMP:  91;

GILA BEND      MOSUNNY   96  44  16 W6        29.91S
6HR MIN TEMP:  81; 6HR MAX TEMP:  97;

$$

AZZ503-504-507>509-211900-
SOUTHEAST ARIZONA

CITY           SKY/WX    TMP DP  RH WIND       PRES   REMARKS
TUCSON         SUNNY    N/A N/A N/A W7        30.05F
DAVIS-MONTHAN  SUNNY     87  48  25 W5        30.05S
6HR MIN TEMP:  74; 6HR MAX TEMP:  88;

RYAN FIELD     SUNNY     88  48  25 N3        30.05S
NOGALES        SUNNY     82  56  40 NW3       30.14S
6HR MIN TEMP:  62; 6HR MAX TEMP:  84;

SIERRA VISTA   MOSUNNY   80  54  39 CALM      30.19F
6HR MIN TEMP:  61; 6HR MAX TEMP:  83;

DOUGLAS        SUNNY     79  59  50 S5        30.16S
6HR MIN TEMP:  61; 6HR MAX TEMP:  79;

SAFFORD        SUNNY     82  58  43 SW6       30.08F
6HR MIN TEMP:  63; 6HR MAX TEMP:  84;

$$

AZZ532-211900-
SOUTHWEST ARIZONA

CITY           SKY/WX    TMP DP  RH WIND       PRES   REMARKS
YUMA           MOSUNNY   93  67  42 SW8       29.87S
6HR MIN TEMP:  82; 6HR MAX TEMP:  93; 6HR PCP: TRACE;

$$

CAZ041-043-047-048-061-525>527-560>570-211900-
SOUTHERN CALIFORNIA

CITY           SKY/WX    TMP DP  RH WIND       PRES   REMARKS
DOWNTOWN L.A.  SUNNY     75  61  61 CALM      30.00S
6HR MIN TEMP:  69; 6HR MAX TEMP:  77;

L.A. AIRPORT   MOSUNNY   71  61  70 SW9       30.01S
6HR MIN TEMP:  68; 6HR MAX TEMP:  73;

SAN DIEGO      MOSUNNY   73  61  65 W8        30.02S
6HR MIN TEMP:  70; 6HR MAX TEMP:  73;

BURBANK        SUNNY     72  59  63 CALM      30.02R
6HR MIN TEMP:  65; 6HR MAX TEMP:  72;

ONTARIO        SUNNY     72  60  66 SW6       30.02S HAZE
6HR MIN TEMP:  65; 6HR MAX TEMP:  72;

RIVERSIDE      SUNNY     69  62  78 VRB3      30.02S
6HR MIN TEMP:  65; 6HR MAX TEMP:  69;

PALM SPRINGS   SUNNY     94  48  20 SE5       29.91R
6HR MIN TEMP:  74; 6HR MAX TEMP:  94;

EL CENTRO NAS  SUNNY     94  47  20 NE7       29.88S
6HR MIN TEMP:  73; 6HR MAX TEMP:  94;

IMPERIAL       SUNNY     93  57  29 NE5       29.86S
6HR MIN TEMP:  73; 6HR MAX TEMP:  93;

BLYTHE         MOSUNNY   93  57  29 E3        29.90R
6HR MIN TEMP:  82; 6HR MAX TEMP:  93; 6HR PCP: TRACE;

NEEDLES        MOSUNNY   94  57  28 NE5       29.95R
6HR MIN TEMP:  86; 6HR MAX TEMP:  94; 6HR PCP: TRACE;

$$

NVZ020-UTZ003-211900-
SOUTHERN NEVADA-UTAH

CITY           SKY/WX    TMP DP  RH WIND       PRES   REMARKS
LAS VEGAS      CLOUDY    79  61  53 NE13      30.10R
6HR MIN TEMP:  79; 6HR MAX TEMP:  87; 6HR PCP:  0.01;

SALT LAKE CITY MOSUNNY   82  44  26 N6        30.13R
6HR MIN TEMP:  69; 6HR MAX TEMP:  85;

$$

NMZ009-TXZ055-211900-
NEW MEXICO-WEST TEXAS

CITY           SKY/WX    TMP DP  RH WIND       PRES   REMARKS
ALBUQUERQUE    MOSUNNY   67  59  75 VRB3      30.25F
6HR MIN TEMP:  61; 6HR MAX TEMP:  67;

EL PASO        MOSUNNY   76  66  71 S6        30.16F
6HR MIN TEMP:  67; 6HR MAX TEMP:  77;

$$


........................KEY........................
SKY/WX - SKY CONDITION/WEATHER
TMP    - TEMPERATURE IN FAHRENHEIT
DP     - DEW POINT IN FAHRENHEIT
RH     - RELATIVE HUMIDITY IN PERCENT
WIND   - DIRECTION AND SPEED IN MILES PER HOUR (MPH)
VRB    - VARIABLE WIND DIRECTION
PRES   - MEAN SEA LEVEL PRESSURE IN INCHES OF MERCURY
         F - FALLING PRESSURE   R - RISING PRESSURE
         S - STEADY PRESSURE
VSB    - VISIBILITY IN MILES
HX     - HEAT INDEX IN FAHRENHEIT
WCI    - WIND CHILL INDEX IN FAHRENHEIT
TC     - TEMPERATURE IN CELSIUS WHICH IS ALSO KNOWN AS
         TEMPERATURE IN CENTIGRADE
AFB    - AIR FORCE BASE
         LUKE AFB IS LUKE AIR FORCE BASE
         DAVIS-MONTHAN IS DAVIS-MONTHAN AIR FORCE BASE
NAS    - NAVAL AIR STATION
         EL CENTRO NAS IS EL CENTRO NAVAL AIR STATION
N/A    - NOT AVAILABLE




USA.gov is the U.S. government's official web portal to all federal, state and local government web resources and services.